Date String (YYYY-MM-DD hh:mm:ss) UTC,Instrument flags,absolute air pressure of the measurement (hPa),sample flow rate (lpm),inlet stack bypass flow (lpm),air temperature of the measurement (°C),ambient temperature measured by the external sensor (°C),aerosol sample conditioner tube jacket temperature (°C),OPC LED temperature (°C),internal box temperature (°C),relative humidity of the measurement (%),span deviation,mass concentration of particles derived from Lorenz-Mie calculation of OPC scattering (μg/m³),mass concentration of particles derived from Lorenz-Mie calculation of OPC scattering (μg/m³),mass concentration of particles derived from Lorenz-Mie calculation of OPC scattering (μg/m³)
DateTimeUTC,F1_M11,P_M11,Q1_M11,Q2_M11,T1_M11,T2_M11,T3_M11,T4_M11,T5_M11,U1_M11,ZSPAN_M11,X0_M11,X2_M11,X1_M11
2024-02-09 17:00:00,SystemResetWarning,0822.9,4.98,000.00,018.3,017.6,000.0,026.9,020.0,18.5,0000.0,0008.17,0004.17,0003.90
2024-02-09 17:01:00,SystemResetWarning,0823.0,5.02,000.00,018.3,017.6,000.0,026.9,020.0,18.6,0000.0,0008.23,0004.22,0003.95
2024-02-09 17:02:00,SystemResetWarning,0823.1,4.99,000.00,018.3,017.7,000.0,026.9,020.0,18.8,0000.0,0008.23,0004.24,0003.97
2024-02-09 17:03:00,SystemResetWarning,0823.1,4.99,000.00,018.3,017.6,000.0,026.9,020.0,18.9,0000.0,0008.15,0004.26,0004.00
2024-02-09 17:04:00,SystemResetWarning,0823.1,5.00,000.00,018.3,017.6,000.0,026.9,020.0,19.0,0000.0,0007.95,0004.29,0004.02
2024-02-09 17:05:00,SystemResetWarning,0822.9,5.00,000.00,018.3,017.6,000.0,026.9,020.0,19.0,0000.0,0007.76,0004.29,0004.04
2024-02-09 17:06:00,SystemResetWarning,0823.2,5.00,000.00,018.3,017.7,000.0,026.8,020.0,18.8,0000.0,0008.57,0004.29,0004.04
2024-02-09 17:07:00,SystemResetWarning,0823.2,5.00,000.00,018.3,017.7,000.0,026.8,020.0,18.8,0000.0,0008.99,0004.32,0004.06
2024-02-09 17:08:00,SystemResetWarning,0823.1,5.00,000.00,018.3,017.7,000.0,026.8,020.0,18.9,0000.0,0008.60,0004.33,0004.08
2024-02-09 17:09:00,SystemResetWarning,0823.0,5.01,000.00,018.3,017.7,000.0,026.8,020.0,18.8,0000.0,0008.45,0004.34,0004.10
2024-02-09 17:10:00,SystemResetWarning,0823.0,5.01,000.00,018.3,017.7,000.0,026.8,020.0,18.8,0000.0,0008.39,0004.34,0004.13
2024-02-09 17:11:00,SystemResetWarning,0823.0,5.00,000.00,018.3,017.7,000.0,026.9,020.0,18.8,0000.0,0008.65,0004.36,0004.14
2024-02-09 17:12:00,SystemResetWarning,0823.0,4.99,000.00,018.3,017.7,000.0,026.8,020.0,18.9,0000.0,0008.73,0004.37,0004.15
2024-02-09 17:13:00,SystemResetWarning,0823.0,5.00,000.00,018.3,017.7,000.0,026.8,020.0,18.9,0000.0,0008.72,0004.38,0004.17
2024-02-09 17:14:00,SystemResetWarning,0823.0,5.00,000.00,018.3,017.7,000.0,026.8,020.0,18.8,0000.0,0008.76,0004.42,0004.19
2024-02-09 17:15:00,SystemResetWarning,0823.1,5.00,000.00,018.3,017.7,000.0,026.8,020.0,18.8,0000.0,0008.86,0004.46,0004.21
2024-02-09 17:16:00,SystemResetWarning,0823.1,5.00,000.00,018.3,017.7,000.0,026.8,020.0,18.7,0000.0,0008.68,0004.47,0004.24
2024-02-09 17:17:00,SystemResetWarning,0823.1,5.00,000.00,018.3,017.7,000.0,026.8,020.0,18.7,0000.0,0007.89,0004.51,0004.29
2024-02-09 17:18:00,SystemResetWarning,0823.1,5.00,000.00,018.3,017.8,000.0,026.8,020.0,18.8,0000.0,0007.48,0004.51,0004.30
2024-02-09 17:19:00,SystemResetWarning,0823.1,5.00,000.00,018.3,017.8,000.0,026.8,020.0,18.8,0000.0,0007.57,0004.55,0004.32
2024-02-09 17:20:00,SystemResetWarning,0823.1,5.00,000.00,018.3,017.8,000.0,026.8,020.1,18.9,0000.0,0007.66,0004.57,0004.33
2024-02-09 17:21:00,SystemResetWarning,0823.1,4.99,000.00,018.3,017.8,000.0,026.8,020.1,19.2,0000.0,0007.69,0004.56,0004.33
2024-02-09 17:22:00,SystemResetWarning,0823.1,5.01,000.00,018.3,017.8,000.0,026.8,020.1,19.1,0000.0,0007.65,0004.58,0004.33
2024-02-09 17:23:00,SystemResetWarning,0823.0,5.01,000.00,018.3,017.9,000.0,026.8,020.1,18.8,0000.0,0007.56,0004.60,0004.34
2024-02-09 17:24:00,SystemResetWarning,0823.1,4.99,000.00,018.3,017.9,000.0,026.8,020.1,18.8,0000.0,0007.71,0004.63,0004.36
2024-02-09 17:25:00,SystemResetWarning,0823.1,5.00,000.00,018.3,017.9,000.0,026.8,020.1,18.8,0000.0,0007.72,0004.64,0004.37
2024-02-09 17:26:00,SystemResetWarning,0823.0,5.00,000.00,018.3,017.9,000.0,026.8,020.1,18.9,0000.0,0007.86,0004.64,0004.37
2024-02-09 17:27:00,SystemResetWarning,0823.1,4.99,000.00,018.3,017.9,000.0,026.8,020.1,19.0,0000.0,0008.25,0004.67,0004.38
2024-02-09 17:28:00,SystemResetWarning,0823.2,5.00,000.00,018.3,017.9,000.0,026.8,020.1,18.9,0000.0,0008.27,0004.68,0004.39
2024-02-09 17:29:00,SystemResetWarning,0823.1,5.01,000.00,018.3,017.9,000.0,026.8,020.1,19.0,0000.0,0008.46,0004.71,0004.41
2024-02-09 17:30:00,SystemResetWarning,0823.1,5.00,000.00,018.3,017.9,000.0,026.8,020.1,19.0,0000.0,0008.73,0004.71,0004.42
2024-02-09 17:31:00,SystemResetWarning,0823.1,5.01,000.00,018.3,017.9,000.0,026.8,020.1,18.9,0000.0,0008.77,0004.70,0004.45
2024-02-09 17:32:00,SystemResetWarning,0823.1,5.00,000.00,018.3,017.9,000.0,026.8,020.1,19.0,0000.0,0009.36,0004.73,0004.46
2024-02-09 17:33:00,SystemResetWarning,0823.2,5.00,000.00,018.3,018.0,000.0,026.8,020.1,19.1,0000.0,0009.82,0004.73,0004.48
2024-02-09 17:34:00,SystemResetWarning,0823.2,5.00,000.00,018.4,018.0,000.0,026.8,020.1,19.0,0000.0,0009.90,0004.77,0004.49
2024-02-09 17:35:00,SystemResetWarning,0823.1,5.00,000.00,018.4,018.0,000.0,026.8,020.1,19.1,0000.0,0009.77,0004.76,0004.49
2024-02-09 17:36:00,SystemResetWarning,0823.1,5.00,000.00,018.4,018.0,000.0,026.8,020.1,19.0,0000.0,0009.75,0004.76,0004.49
2024-02-09 17:37:00,SystemResetWarning,0823.1,5.00,000.00,018.4,018.0,000.0,026.8,020.1,18.7,0000.0,0009.96,0004.76,0004.51
2024-02-09 17:38:00,SystemResetWarning,0823.1,4.99,000.00,018.4,018.0,000.0,026.8,020.1,18.5,0000.0,0009.91,0004.75,0004.51
2024-02-09 17:39:00,SystemResetWarning,0823.1,5.00,000.00,018.4,018.0,000.0,026.8,020.2,18.6,0000.0,0009.98,0004.76,0004.51
2024-02-09 17:40:00,SystemResetWarning,0823.1,5.01,000.00,018.4,018.0,000.0,026.8,020.2,18.4,0000.0,0010.29,0004.76,0004.51
2024-02-09 17:41:00,SystemResetWarning,0823.1,5.00,000.00,018.4,018.0,000.0,026.8,020.2,18.4,0000.0,0010.14,0004.78,0004.51
2024-02-09 17:42:00,SystemResetWarning,0823.1,5.00,000.00,018.4,018.0,000.0,026.8,020.2,18.6,0000.0,0009.84,0004.80,0004.51
2024-02-09 17:43:00,SystemResetWarning,0823.1,4.99,000.00,018.4,018.0,000.0,026.8,020.2,18.6,0000.0,0009.65,0004.80,0004.51
2024-02-09 17:44:00,SystemResetWarning,0823.1,4.99,000.00,018.4,018.1,000.0,026.8,020.2,18.4,0000.0,0009.01,0004.79,0004.50
2024-02-09 17:45:00,SystemResetWarning,0823.1,5.00,000.00,018.4,018.1,000.0,026.8,020.2,18.3,0000.0,0008.48,0004.77,0004.50
2024-02-09 17:46:00,SystemResetWarning,0823.1,5.01,000.00,018.4,018.1,000.0,026.8,020.2,18.3,0000.0,0008.44,0004.74,0004.50
2024-02-09 17:47:00,SystemResetWarning,0823.1,5.01,000.00,018.4,018.1,000.0,026.8,020.2,18.3,0000.0,0008.47,0004.75,0004.51
2024-02-09 17:48:00,SystemResetWarning,0823.1,5.00,000.00,018.5,018.1,000.0,026.8,020.2,18.3,0000.0,0008.44,0004.76,0004.52
2024-02-09 17:49:00,SystemResetWarning,0823.2,4.99,000.00,018.5,018.1,000.0,026.8,020.3,18.2,0000.0,0008.01,0004.78,0004.53
2024-02-09 17:50:00,SystemResetWarning,0823.1,4.99,000.00,018.5,018.1,000.0,026.9,020.3,18.3,0000.0,0008.20,0004.78,0004.54
2024-02-09 17:51:00,SystemResetWarning,0823.1,5.01,000.00,018.5,018.1,000.0,026.9,020.3,18.3,0000.0,0007.89,0004.80,0004.54
2024-02-09 17:52:00,SystemResetWarning,0823.2,5.00,000.00,018.5,018.2,000.0,026.9,020.3,18.3,0000.0,0007.83,0004.80,0004.55
2024-02-09 17:53:00,SystemResetWarning,0823.2,5.00,000.00,018.5,018.2,000.0,026.9,020.3,18.1,0000.0,0007.86,0004.81,0004.55
2024-02-09 17:54:00,SystemResetWarning,0823.3,5.00,000.00,018.5,018.2,000.0,026.9,020.3,18.0,0000.0,0007.91,0004.82,0004.56
2024-02-09 17:55:00,SystemResetWarning,0823.2,5.00,000.00,018.5,018.2,000.0,026.9,020.3,18.0,0000.0,0007.93,0004.83,0004.56
2024-02-09 17:56:00,SystemResetWarning,0823.3,5.00,000.00,018.5,018.2,000.0,026.9,020.3,18.0,0000.0,0007.98,0004.85,0004.57
2024-02-09 17:57:00,SystemResetWarning,0823.3,5.00,000.00,018.5,018.2,000.0,026.9,020.3,18.1,0000.0,0008.01,0004.86,0004.57
2024-02-09 17:58:00,SystemResetWarning,0823.2,5.00,000.00,018.5,018.2,000.0,026.9,020.3,18.0,0000.0,0008.00,0004.85,0004.56
2024-02-09 17:59:00,SystemResetWarning,0823.3,4.99,000.00,018.6,018.2,000.0,026.9,020.3,18.1,0000.0,0008.01,0004.85,0004.54
